Home   Weather   Saskatoon   Past weeks

Flag for Canada Past Weather in Saskatoon, Saskatchewan, Canada — Yesterday and Last 2 Weeks

Now
34 °F

Passing clouds.


Feels Like: 25 °F
Forecast: 32 / 52 °F
Wind: 12 mph from Northwest

Location: Saskatoon Weather Station

Current Time: Apr 23, 2018 at 5:46:19 am

Latest Report: Apr 23, 2018 at 5:00 am


Visibility: 15 mi

Pressure: 30.32 "Hg

Humidity: 87%

Dew Point: 30 °F

Location of SaskatoonLocation

Past Weather in Saskatoon — Graph

°F

Saskatoon Temperature Yesterday

Maximum temperature yesterday: 54 °F (at 1:00 pm)
Minimum temperature yesterday: 39 °F (at 5:00 am)
Average temperature yesterday: 45 °F

High & Low Weather Summary for the Past Weeks

 TemperatureHumidityPressure
High68 °F (Apr 21, 3:00 pm)100% (Apr 15, 6:00 am)30.40 "Hg (Apr 15, 6:00 am)
Low7 °F (Apr 13, 4:00 am)28% (Apr 19, 4:00 pm)29.71 "Hg (Apr 21, 10:00 pm)
Average33 °F75%30.09 "Hg
* Reported Apr 8 4:00 am — Apr 23 4:00 am, Saskatoon. Weather by CustomWeather, © 2018

Note: Actual official high and low records may vary slightly from our data, if they occured in-between our weather recording intervals... More about our weather records

Advertising

Saskatoon Weather History for the Previous 24 Hours

Scroll right to see more
 ConditionsComfort  
Time TempWeatherWind HumidityBarometerVisibility
4:00 am
Mon, Apr 23
36 °FClear.13 mph81%30.29 "Hg15 mi
3:00 am36 °FPassing clouds.9 mph87%30.28 "Hg15 mi
2:23 am36 °FPassing clouds.10 mph87%30.27 "Hg15 mi
2:00 am37 °FPassing clouds.12 mph81%30.27 "Hg15 mi
1:00 am37 °FPassing clouds.10 mph81%30.25 "Hg15 mi
12:00 am37 °FPassing clouds.9 mph81%30.24 "Hg15 mi
11:00 pm
Sun, Apr 22
41 °FPassing clouds.10 mph76%30.22 "Hg15 mi
10:00 pm39 °FPassing clouds.10 mph75%30.21 "Hg15 mi
9:00 pm43 °FPassing clouds.12 mph71%30.19 "Hg15 mi
8:00 pm45 °FOvercast.13 mph66%30.17 "Hg15 mi
7:00 pm46 °FPartly sunny.22 mph62%30.14 "Hg15 mi
5:00 pm50 °FPartly sunny.25 mph54%30.09 "Hg15 mi
4:00 pm52 °FScattered clouds.29 mph50%30.06 "Hg15 mi
3:00 pm52 °FPartly sunny.30 mph50%30.03 "Hg15 mi
2:00 pm52 °FPartly sunny.25 mph50%30.02 "Hg15 mi
1:00 pm54 °FScattered clouds.26 mph44%30.01 "Hg15 mi
12:00 pm52 °FPassing clouds.30 mph44%30.00 "Hg15 mi
11:00 am50 °FPassing clouds.26 mph47%30.00 "Hg15 mi
10:00 am48 °FSunny.26 mph50%29.99 "Hg15 mi
8:00 am43 °FSunny.20 mph61%29.98 "Hg15 mi
7:00 am41 °FPassing clouds.17 mph70%29.95 "Hg15 mi
6:00 am39 °FPassing clouds.16 mph75%29.91 "Hg15 mi
5:00 am39 °FPassing clouds.21 mph81%29.89 "Hg15 mi
Weather by CustomWeather, © 2018

See weather overview